TimePDT,TemperatureF,Dew PointF,Humidity,Sea Level PressureIn,VisibilityMPH,Wind Direction,Wind SpeedMPH,Gust SpeedMPH,PrecipitationIn,Events,Conditions,WindDirDegrees,DateUTC
12:53 AM,55.9,48.9,77,30.21,10.0,NE,4.6,-,0.00,Rain,Light Rain,40,2012-10-25 07:53:00
1:53 AM,55.0,46.9,74,30.21,10.0,ENE,4.6,-,0.00,,Overcast,70,2012-10-25 08:53:00
2:53 AM,55.0,50.0,83,30.20,10.0,SE,3.5,-,N/A,,Mostly Cloudy,140,2012-10-25 09:53:00
3:53 AM,55.0,48.0,77,30.18,10.0,SE,5.8,-,N/A,,Overcast,140,2012-10-25 10:53:00
4:53 AM,55.0,48.0,77,30.19,10.0,ESE,8.1,-,N/A,,Overcast,110,2012-10-25 11:53:00
5:53 AM,55.0,48.9,80,30.19,10.0,East,4.6,-,0.00,,Overcast,90,2012-10-25 12:53:00
6:53 AM,54.0,51.1,90,30.19,7.0,South,5.8,-,0.00,Rain,Light Rain,180,2012-10-25 13:53:00
7:53 AM,53.1,52.0,96,30.21,4.0,Calm,Calm,-,0.01,Rain,Light Rain,0,2012-10-25 14:53:00
8:53 AM,52.0,52.0,100,30.24,10.0,Calm,Calm,-,0.00,,Overcast,0,2012-10-25 15:53:00
9:53 AM,52.0,52.0,100,30.25,10.0,NNW,5.8,-,0.00,,Overcast,340,2012-10-25 16:53:00
10:04 AM,51.8,51.8,100,30.26,10.0,North,4.6,-,N/A,,Overcast,350,2012-10-25 17:04:00
10:17 AM,51.8,51.8,100,30.26,10.0,NNW,5.8,-,N/A,,Overcast,330,2012-10-25 17:17:00
10:53 AM,55.2,53.2,93,30.26,10.0,WNW,4.6,-,0.00,,Overcast,300,2012-10-25 17:53:00
11:18 AM,55.4,53.6,94,30.25,10.0,WSW,4.6,-,N/A,,Overcast,250,2012-10-25 18:18:00
11:53 AM,55.8,52.9,90,30.25,10.0,West,4.6,-,N/A,,Overcast,260,2012-10-25 18:53:00
12:53 PM,57.2,53.6,88,30.24,10.0,Variable,3.5,-,N/A,,Overcast,0,2012-10-25 19:53:00
1:53 PM,57.9,54.0,87,30.22,10.0,NW,4.6,-,N/A,,Overcast,310,2012-10-25 20:53:00
2:53 PM,60.1,53.1,78,30.21,10.0,Calm,Calm,-,N/A,,Mostly Cloudy,0,2012-10-25 21:53:00
3:11 PM,60.8,51.8,72,30.21,10.0,NW,5.8,-,N/A,,Scattered Clouds,320,2012-10-25 22:11:00
3:53 PM,62.1,53.1,72,30.20,10.0,WNW,11.5,16.1,N/A,,Scattered Clouds,290,2012-10-25 22:53:00
4:53 PM,62.1,51.1,67,30.19,10.0,West,11.5,17.3,N/A,,Clear,280,2012-10-25 23:53:00
5:53 PM,62.1,46.9,58,30.19,10.0,NNW,9.2,-,N/A,,Clear,330,2012-10-26 00:53:00
6:53 PM,57.9,52.0,81,30.20,10.0,WNW,5.8,-,N/A,,Clear,300,2012-10-26 01:53:00
7:53 PM,57.9,45.0,62,30.22,10.0,NW,8.1,-,N/A,,Clear,320,2012-10-26 02:53:00
8:53 PM,54.0,46.9,77,30.22,10.0,WNW,6.9,-,N/A,,Clear,290,2012-10-26 03:53:00
9:53 PM,53.6,51.8,94,30.23,10.0,SW,3.5,-,N/A,,Clear,220,2012-10-26 04:53:00
10:53 PM,51.1,50.0,96,30.23,10.0,WSW,4.6,-,N/A,,Clear,240,2012-10-26 05:53:00
11:53 PM,51.8,48.2,88,30.23,10.0,Calm,Calm,-,N/A,,Clear,0,2012-10-26 06:53:00